Location: Stara Lesna
(49.1528°N, 20.2911°E)
Time: 19:02:39
(UTC+02:00)

Cosmos 2228 Rocket - Pass Details

Date: 13 July 2020
Orbit: 617 x 653 km, 82.5° (Epoch: 11 August)

Event Time Altitude Azimuth Distance (km) Brightness Sun altitude
Rises 00:11:02 0° 348° (NNW) 2,983 8.3 -18.7°
Reaches altitude 10° 00:13:19 10° 348° (NNW) 2,064 7.0 -18.7°
Maximum altitude 00:17:54 77° 263° (W) 668 3.1 -18.8°
Enters shadow 00:19:26 41° 185° (S) 936 3.5 -18.8°
